Flag for U.S.A. Weather past 2 weeks in Columbia, South Carolina, U.S.A.

Now
83 °F

Clear.


Feels Like: 88 °F
Forecast: 77 / 96 °F
Wind: 5 mph from South

Location: Columbia Owens Downtown Airport

Current Time: Jul 28, 2014 at 1:49:47 AM

Latest Report: Jul 28, 2014 at 12:53 AM


Visibility: 9 mi

Pressure: 29.87 "Hg

Humidity: 70%

Dew point: 72 °F

Location of ColumbiaLocation

Historic Weather in Columbia — Graph

°F

Columbia temperature yesterday

Maximum temperature yesterday: 98 °F (at 4:53 PM)
Minimum temperature yesterday: 74 °F (at 4:53 AM)
Average temperature yesterday: 86 °F

Past Weeks' High & Low Weather Summary

 TemperatureHumidityPressure
High98 °F (Jul 27, 4:53 PM)94% (Jul 21, 6:53 AM)30.16 "Hg (Jul 21, 6:53 AM)
Low68 °F (Jul 17, 3:53 AM)33% (Jul 27, 4:53 PM)29.81 "Hg (Jul 15, 4:53 PM)
Average81 °F70%30.01 "Hg
* Reported Jul 12 11:53 PM — Jul 27 11:53 PM, Columbia, Weather by CustomWeather, © 2014

Note: Actual official high and low records may vary slightly from our data, if they occured in-between our weather recording intervals... More about our weather records

Advertising

Columbia weather history for previous 24 hours

 ConditionsComfort  
Time TempWeatherWind HumidityBarometerVisibility
11:53 PM
Jul 27
85 °FClear.5 mph63%29.89 "Hg10 mi
10:53 PM86 °FClear.6 mph61%29.89 "Hg10 mi
9:53 PM88 °FClear.6 mph57%29.90 "Hg10 mi
8:53 PM90 °FSunny.8 mph54%29.88 "Hg10 mi
7:53 PM93 °FSunny.9 mph49%29.87 "Hg10 mi
6:53 PM96 °FSunny.9 mph41%29.85 "Hg10 mi
5:53 PM98 °FSunny.10 mph33%29.86 "Hg10 mi
4:53 PM98 °FSunny.9 mph33%29.88 "Hg10 mi
3:53 PM96 °FSunny.8 mph34%29.90 "Hg10 mi
2:53 PM96 °FSunny.9 mph37%29.92 "Hg10 mi
1:53 PM94 °FSunny.9 mph38%29.94 "Hg10 mi
12:53 PM92 °FSunny.7 mph46%29.96 "Hg10 mi
11:53 AM90 °FSunny.3 mph47%29.98 "Hg10 mi
10:53 AM87 °FSunny.7 mph53%29.98 "Hg10 mi
9:53 AM83 °FPassing clouds.3 mph65%29.96 "Hg10 mi
8:53 AM80 °FSunny.5 mph69%29.97 "Hg10 mi
7:53 AM75 °FSunny.No wind79%29.96 "Hg10 mi
6:53 AM75 °FClear.3 mph76%29.95 "Hg10 mi
5:53 AM74 °FClear.No wind82%29.95 "Hg10 mi
4:53 AM74 °FClear.No wind82%29.96 "Hg10 mi
3:53 AM75 °FClear.No wind79%29.95 "Hg10 mi
2:53 AM75 °FClear.No wind82%29.94 "Hg10 mi
1:53 AM77 °FClear.No wind77%29.96 "Hg10 mi
Weather by CustomWeather, © 2014

See weather overviewHow to use our weather pages